When you browse on this site, cookies collect data to enhance your experience and personalize the content and advertising you see.
Visit our Privacy Policy to learn more. By continuing to use the site, you agree to this use of cookies and data.
  • en France
  • Liste des pays
  • À 7 jours
  • Température de l'eau
  • Carte météo
  • Widgets météo
  • user-avatar
    Se connecter

    Météo par heure à Mendoza

    Ce jour, 21 Février, Vendredi

    Heure Température Précipitation Vent Pression Humidité
    00:00 +19°C° 0 mm 4 m/s 702 mmHg 29%
    01:00 +18°C° 0 mm 4 m/s 702 mmHg 27%
    08:00 +20°C° 0 mm 6 m/s 704 mmHg 24%
    09:00 +21°C° 0 mm 6 m/s 704 mmHg 24%
    10:00 +22°C° 0 mm 5 m/s 704 mmHg 23%
    11:00 +23°C° 0 mm 5 m/s 703 mmHg 23%
    12:00 +25°C° 0 mm 5 m/s 703 mmHg 23%
    13:00 +26°C° 0 mm 4 m/s 702 mmHg 23%
    14:00 +26°C° 0 mm 4 m/s 702 mmHg 24%
    15:00 +26°C° 0 mm 4 m/s 702 mmHg 25%
    16:00 +26°C° 0 mm 4 m/s 702 mmHg 26%
    17:00 +25°C° 0 mm 4 m/s 702 mmHg 29%
    18:00 +23°C° 0 mm 4 m/s 703 mmHg 32%
    19:00 +22°C° 0 mm 3 m/s 703 mmHg 36%
    20:00 +21°C° 0 mm 3 m/s 703 mmHg 37%
    21:00 +21°C° 0 mm 3 m/s 703 mmHg 38%
    22:00 +20°C° 0 mm 2 m/s 703 mmHg 39%
    23:00 +20°C° 0 mm 2 m/s 703 mmHg 40%

    Demain, 22 Février, Samedi

    Heure Température Précipitation Vent Pression Humidité
    00:00 +19°C° 0 mm 2 m/s 703 mmHg 40%
    01:00 +19°C° 0 mm 2 m/s 702 mmHg 41%
    02:00 +19°C° 0 mm 2 m/s 702 mmHg 42%
    03:00 +18°C° 0 mm 2 m/s 702 mmHg 44%
    04:00 +18°C° 0 mm 2 m/s 701 mmHg 45%
    05:00 +18°C° 0 mm 2 m/s 701 mmHg 43%
    06:00 +19°C° 0 mm 2 m/s 702 mmHg 42%
    07:00 +20°C° 0 mm 2 m/s 702 mmHg 40%
    08:00 +21°C° 0 mm 2 m/s 702 mmHg 38%
    09:00 +24°C° 0 mm 2 m/s 702 mmHg 36%
    10:00 +25°C° 0 mm 2 m/s 702 mmHg 33%
    11:00 +26°C° 0 mm 2 m/s 701 mmHg 32%
    12:00 +27°C° 0 mm 2 m/s 701 mmHg 30%
    13:00 +28°C° 0 mm 2 m/s 700 mmHg 29%
    14:00 +29°C° 0 mm 2 m/s 700 mmHg 28%
    15:00 +29°C° 0 mm 2 m/s 700 mmHg 28%
    16:00 +29°C° 0 mm 2 m/s 699 mmHg 27%
    17:00 +28°C° 0 mm 2 m/s 699 mmHg 30%
    18:00 +27°C° 0 mm 3 m/s 699 mmHg 32%
    19:00 +26°C° 0 mm 3 m/s 699 mmHg 35%
    20:00 +25°C° 0 mm 3 m/s 699 mmHg 37%
    21:00 +24°C° 0 mm 3 m/s 700 mmHg 38%
    22:00 +24°C° 0 mm 3 m/s 700 mmHg 40%
    23:00 +23°C° 0 mm 2 m/s 699 mmHg 42%

    Après-demain, 23 Février, Dimanche

    Heure Température Précipitation Vent Pression Humidité
    00:00 +21°C° 0 mm 2 m/s 699 mmHg 44%
    01:00 +22°C° 0 mm 1 m/s 698 mmHg 45%
    02:00 +21°C° 0 mm 1 m/s 698 mmHg 46%
    03:00 +21°C° 0 mm 1 m/s 698 mmHg 47%
    04:00 +21°C° 0 mm 1 m/s 698 mmHg 47%
    05:00 +22°C° 0 mm 1 m/s 698 mmHg 45%
    06:00 +21°C° 0 mm 2 m/s 698 mmHg 42%
    07:00 +23°C° 0 mm 2 m/s 699 mmHg 40%
    08:00 +25°C° 0 mm 2 m/s 699 mmHg 37%
    09:00 +27°C° 0 mm 2 m/s 699 mmHg 34%
    10:00 +28°C° 0 mm 2 m/s 699 mmHg 31%
    11:00 +29°C° 0 mm 3 m/s 698 mmHg 29%
    12:00 +31°C° 0 mm 3 m/s 698 mmHg 27%
    13:00 +33°C° 0 mm 4 m/s 697 mmHg 24%
    14:00 +33°C° 0 mm 4 m/s 697 mmHg 24%
    15:00 +33°C° 0 mm 4 m/s 696 mmHg 23%
    16:00 +34°C° 0 mm 4 m/s 696 mmHg 22%
    17:00 +32°C° 0 mm 4 m/s 696 mmHg 24%
    18:00 +30°C° 0 mm 4 m/s 696 mmHg 26%
    19:00 +29°C° 0 mm 3 m/s 696 mmHg 28%
    20:00 +28°C° 0 mm 3 m/s 696 mmHg 33%
    21:00 +27°C° 0 mm 3 m/s 696 mmHg 37%
    22:00 +26°C° 0 mm 3 m/s 696 mmHg 41%
    23:00 +25°C° 0 mm 3 m/s 696 mmHg 42%

    24 Février, Lundi

    Heure Température Précipitation Vent Pression Humidité
    00:00 +25°C° 0 mm 3 m/s 695 mmHg 44%
    01:00 +24°C° 0 mm 2 m/s 695 mmHg 45%
    02:00 +24°C° 0 mm 2 m/s 694 mmHg 47%
    03:00 +23°C° 0 mm 2 m/s 694 mmHg 49%
    04:00 +22°C° 0 mm 1 m/s 694 mmHg 50%
    05:00 +23°C° 0 mm 1 m/s 694 mmHg 48%
    06:00 +24°C° 0 mm 2 m/s 694 mmHg 45%
    07:00 +25°C° 0 mm 2 m/s 695 mmHg 42%
    08:00 +26°C° 0 mm 2 m/s 695 mmHg 39%
    09:00 +28°C° 0 mm 2 m/s 695 mmHg 36%
    10:00 +30°C° 0 mm 2 m/s 695 mmHg 33%
    11:00 +31°C° 0 mm 2 m/s 694 mmHg 30%
    12:00 +32°C° 0 mm 2 m/s 694 mmHg 27%
    13:00 +34°C° 0 mm 2 m/s 694 mmHg 24%
    14:00 +35°C° 0 mm 2 m/s 694 mmHg 23%
    15:00 +35°C° 0 mm 2 m/s 693 mmHg 21%
    16:00 +35°C° 0 mm 2 m/s 693 mmHg 20%
    17:00 +34°C° 0.2 mm 3 m/s 694 mmHg 25%
    18:00 +32°C° 0.2 mm 4 m/s 694 mmHg 29%
    19:00 +29°C° 0.2 mm 5 m/s 695 mmHg 34%
    20:00 +27°C° 0.2 mm 5 m/s 696 mmHg 37%
    21:00 +25°C° 0.2 mm 4 m/s 696 mmHg 39%
    22:00 +22°C° 0.2 mm 4 m/s 697 mmHg 42%
    23:00 +22°C° 0 mm 3 m/s 697 mmHg 42%

    25 Février, Mardi

    Heure Température Précipitation Vent Pression Humidité
    00:00 +22°C° 0 mm 3 m/s 697 mmHg 42%
    01:00 +21°C° 0 mm 2 m/s 697 mmHg 42%
    02:00 +21°C° 0 mm 2 m/s 697 mmHg 43%
    03:00 +20°C° 0 mm 2 m/s 697 mmHg 43%
    04:00 +20°C° 0 mm 2 m/s 697 mmHg 44%
    05:00 +20°C° 0 mm 2 m/s 698 mmHg 41%
    06:00 +21°C° 0 mm 2 m/s 698 mmHg 39%
    07:00 +22°C° 0 mm 3 m/s 699 mmHg 36%
    08:00 +24°C° 0 mm 3 m/s 699 mmHg 33%
    09:00 +25°C° 0 mm 3 m/s 699 mmHg 30%
    10:00 +26°C° 0 mm 3 m/s 699 mmHg 26%
    11:00 +27°C° 0 mm 3 m/s 699 mmHg 25%
    12:00 +28°C° 0 mm 3 m/s 698 mmHg 23%
    13:00 +29°C° 0 mm 3 m/s 698 mmHg 22%
    14:00 +29°C° 0 mm 3 m/s 698 mmHg 22%
    15:00 +30°C° 0 mm 3 m/s 698 mmHg 21%
    16:00 +30°C° 0 mm 4 m/s 698 mmHg 21%
    17:00 +29°C° 0 mm 3 m/s 698 mmHg 23%
    18:00 +27°C° 0 mm 3 m/s 699 mmHg 24%
    19:00 +26°C° 0 mm 3 m/s 699 mmHg 26%
    20:00 +26°C° 0 mm 2 m/s 699 mmHg 28%
    21:00 +25°C° 0 mm 2 m/s 700 mmHg 30%
    22:00 +24°C° 0 mm 1 m/s 700 mmHg 32%
    23:00 +23°C° 0 mm 1 m/s 700 mmHg 33%

    26 Février, Mercredi

    Heure Température Précipitation Vent Pression Humidité
    00:00 +22°C° 0 mm 1 m/s 699 mmHg 34%
    01:00 +22°C° 0 mm 1 m/s 699 mmHg 36%
    02:00 +21°C° 0 mm 1 m/s 699 mmHg 36%
    03:00 +20°C° 0 mm 2 m/s 699 mmHg 37%
    04:00 +20°C° 0 mm 2 m/s 699 mmHg 37%
    05:00 +21°C° 0 mm 2 m/s 699 mmHg 34%
    06:00 +21°C° 0 mm 2 m/s 699 mmHg 32%
    07:00 +23°C° 0 mm 2 m/s 700 mmHg 29%
    08:00 +25°C° 0 mm 2 m/s 699 mmHg 27%
    09:00 +26°C° 0 mm 3 m/s 699 mmHg 25%
    10:00 +27°C° 0 mm 3 m/s 699 mmHg 23%
    11:00 +29°C° 0 mm 3 m/s 699 mmHg 23%
    12:00 +30°C° 0 mm 3 m/s 698 mmHg 22%
    13:00 +31°C° 0 mm 3 m/s 698 mmHg 21%
    14:00 +31°C° 0 mm 3 m/s 697 mmHg 21%
    15:00 +33°C° 0 mm 3 m/s 697 mmHg 21%
    16:00 +33°C° 0 mm 3 m/s 696 mmHg 21%
    17:00 +31°C° 0 mm 2 m/s 697 mmHg 23%
    18:00 +29°C° 0 mm 2 m/s 697 mmHg 25%
    19:00 +28°C° 0 mm 2 m/s 697 mmHg 28%
    20:00 +28°C° 0 mm 2 m/s 698 mmHg 28%
    21:00 +27°C° 0 mm 2 m/s 698 mmHg 29%
    22:00 +27°C° 0 mm 2 m/s 698 mmHg 30%
    23:00 +26°C° 0 mm 1 m/s 698 mmHg 33%
    Voir plus